DW6794 Weather Reports


Display with metric or nautical units.
time (UTC)temp
F
wind
direction
speed
MPH
gust
MPH
rain 1hr
in
rain 24hr
in
rain mn
in
humidity
%
barometer
mb
20140424225358 77 5 0.0 2.0 0.00 0.00 0.00 26 1008.7
20140424224359 78 5 1.0 3.0 0.00 0.00 0.00 25 1008.7
20140424223359 78 5 0.0 2.0 0.00 0.00 0.00 26 1008.7
20140424222358 77 5 2.0 3.0 0.00 0.00 0.00 25 1009.0
20140424221359 77 5 1.0 3.0 0.00 0.00 0.00 26 1009.2
20140424220359 77 5 0.0 3.0 0.00 0.00 0.00 27 1009.0
20140424215359 77 5 3.0 12.0 0.00 0.00 0.00 26 1009.1
20140424214359 78 355 2.0 6.0 0.00 0.00 0.00 26 1009.1
20140424213359 78 355 2.0 6.0 0.00 0.00 0.00 26 1009.1
20140424212359 78 348 1.0 3.0 0.00 0.00 0.00 26 1009.0
20140424211359 77 344 2.0 6.0 0.00 0.00 0.00 26 1009.1
20140424210359 78 9 0.0 6.0 0.00 0.00 0.00 26 1008.9
20140424205359 78 14 1.0 6.0 0.00 0.00 0.00 26 1008.9
20140424204359 78 19 2.0 6.0 0.00 0.00 0.00 27 1008.9
20140424203359 78 9 0.0 3.0 0.00 0.00 0.00 28 1008.9
20140424202359 78 11 1.0 5.0 0.00 0.00 0.00 27 1009.0
20140424201359 77 350 1.0 12.0 0.00 0.00 0.00 27 1009.0
20140424200359 77 30 0.0 5.0 0.00 0.00 0.00 27 1009.1
20140424195400 77 32 1.0 6.0 0.00 0.00 0.00 27 1009.2
20140424194359 77 5 1.0 5.0 0.00 0.00 0.00 28 1009.4
20140424193359 76 336 1.0 5.0 0.00 0.00 0.00 30 1009.6
20140424192359 76 12 2.0 10.0 0.00 0.00 0.00 29 1009.8
20140424191359 75 288 0.0 3.0 0.00 0.00 0.00 31 1009.9
20140424190400 75 211 1.0 3.0 0.00 0.00 0.00 30 1010.1
20140424185359 75 212 0.0 3.0 0.00 0.00 0.00 31 1010.3
20140424184359 74 212 0.0 3.0 0.00 0.00 0.00 33 1010.4
20140424183400 74 212 0.0 5.0 0.00 0.00 0.00 33 1010.6
20140424182400 74 211 2.0 5.0 0.00 0.00 0.00 34 1010.7
20140424181400 73 58 0.0 5.0 0.00 0.00 0.00 35 1011.0
20140424180400 73 26 0.0 2.0 0.00 0.00 0.00 38 1011.0
20140424175359 72 263 3.0 3.0 0.00 0.00 0.00 36 1011.4
20140424174400 71 263 1.0 7.0 0.00 0.00 0.00 38 1011.6
20140424173359 71 247 3.0 7.0 0.00 0.00 0.00 38 1011.8
20140424172359 71 190 3.0 5.0 0.00 0.00 0.00 41 1012.0
20140424171400 70 60 0.0 5.0 0.00 0.00 0.00 41 1012.2
20140424170400 70 60 1.0 5.0 0.00 0.00 0.00 43 1012.3
20140424165359 69 60 0.0 5.0 0.00 0.00 0.00 44 1012.5
20140424164359 68 60 2.0 5.0 0.00 0.00 0.00 46 1012.7
20140424163400 68 60 0.0 3.0 0.00 0.00 0.00 46 1012.9
20140424162400 67 60 1.0 6.0 0.00 0.00 0.00 49 1013.3
20140424161400 66 60 1.0 3.0 0.00 0.00 0.00 50 1013.4
20140424160400 65 60 1.0 3.0 0.00 0.00 0.00 50 1013.5
20140424154401 63 60 1.0 3.0 0.00 0.00 0.00 53 1014.0
20140424153400 63 60 1.0 6.0 0.00 0.00 0.00 54 1014.3
20140424151400 61 76 1.0 6.0 0.00 0.00 0.00 55 1014.6
20140424150400 60 62 1.0 6.0 0.00 0.00 0.00 58 1014.7
20140424145400 59 60 1.0 6.0 0.00 0.00 0.00 59 1014.7
20140424144400 58 71 2.0 6.0 0.00 0.00 0.00 61 1014.9
20140424143400 57 71 5.0 7.0 0.00 0.00 0.00 62 1014.9
20140424142400 56 73 4.0 6.0 0.00 0.00 0.00 62 1014.9
20140424141400 56 72 3.0 6.0 0.00 0.00 0.00 63 1014.8
20140424140400 55 72 3.0 7.0 0.00 0.00 0.00 64 1014.8
20140424135400 54 73 2.0 7.0 0.00 0.00 0.00 66 1014.8
20140424134400 53 100 2.0 5.0 0.00 0.00 0.00 69 1014.8
20140424132400 51 100 3.0 6.0 0.00 0.00 0.00 70 1014.8
20140424131400 50 100 3.0 6.0 0.00 0.00 0.00 73 1014.9
20140424130400 49 203 0.0 0.0 0.00 0.00 0.00 75 1014.9
20140424125400 47 215 0.0 0.0 0.00 0.00 0.00 77 1014.8
20140424124400 45 215 0.0 0.0 0.00 0.00 0.00 77 1014.9
20140424123400 44 215 0.0 0.0 0.00 0.00 0.00 78 1015.0
20140424122400 42 215 0.0 0.0 0.00 0.00 0.00 78 1014.9
20140424121401 40 215 0.0 0.0 0.00 0.00 0.00 79 1014.9
20140424120401 39 215 0.0 0.0 0.00 0.00 0.00 79 1014.9
20140424115400 38 215 0.0 0.0 0.00 0.00 0.00 78 1014.3
20140424114400 37 215 0.0 0.0 0.00 0.00 0.00 79 1014.5
20140424113401 35 215 0.0 0.0 0.00 0.00 0.00 78 1014.5
20140424112400 35 215 0.0 0.0 0.00 0.00 0.00 78 1014.4
20140424111401 34 215 0.0 0.0 0.00 0.00 0.00 78 1014.4
20140424110401 34 199 0.0 3.0 0.00 0.00 0.00 78 1014.3
20140424105400 34 199 1.0 2.0 0.00 0.00 0.00 78 1014.1
20140424104401 34 199 0.0 0.0 0.00 0.00 0.00 78 1014.1
20140424103401 34 199 0.0 3.0 0.00 0.00 0.00 77 1014.2
20140424102401 34 167 0.0 0.0 0.00 0.00 0.00 78 1014.1
20140424101401 34 167 0.0 0.0 0.00 0.00 0.00 78 1014.2
20140424100401 34 167 0.0 0.0 0.00 0.00 0.00 77 1014.2
20140424095401 34 167 0.0 0.0 0.00 0.00 0.00 76 1014.1
20140424094401 34 167 0.0 0.0 0.00 0.00 0.00 76 1013.9
20140424093401 34 167 0.0 0.0 0.00 0.00 0.00 75 1013.7
20140424092401 34 167 0.0 0.0 0.00 0.00 0.00 76 1013.7
20140424091402 34 167 0.0 0.0 0.00 0.00 0.00 75 1013.6
20140424090402 35 167 0.0 0.0 0.00 0.00 0.00 75 1013.6
20140424085401 35 167 0.0 0.0 0.00 0.00 0.00 74 1013.6
20140424084401 35 167 0.0 0.0 0.00 0.00 0.00 74 1013.5
20140424083402 35 167 0.0 0.0 0.00 0.00 0.00 74 1013.4
20140424082402 35 167 0.0 0.0 0.00 0.00 0.00 73 1013.5
20140424081402 36 167 0.0 0.0 0.00 0.00 0.00 73 1013.2
20140424080402 36 167 0.0 0.0 0.00 0.00 0.00 74 1013.0
20140424075401 36 167 0.0 0.0 0.00 0.00 0.00 73 1013.1
20140424074401 36 167 0.0 0.0 0.00 0.00 0.00 73 1013.1
20140424073401 36 167 0.0 0.0 0.00 0.00 0.00 73 1013.0
20140424072401 37 167 0.0 0.0 0.00 0.00 0.00 73 1013.0
20140424071401 36 167 0.0 0.0 0.00 0.00 0.00 73 1012.8
20140424070401 36 167 0.0 3.0 0.00 0.00 0.00 73 1012.8
20140424065401 36 167 0.0 0.0 0.00 0.00 0.00 72 1013.0
20140424064402 36 167 0.0 0.0 0.00 0.00 0.00 72 1013.2
20140424063402 36 167 0.0 0.0 0.00 0.00 0.00 72 1013.4
20140424062402 37 167 0.0 0.0 0.00 0.00 0.00 71 1013.3
20140424061402 37 167 0.0 0.0 0.00 0.00 0.00 70 1013.5
20140424060402 37 167 0.0 0.0 0.00 0.00 0.00 69 1013.6
20140424055402 37 167 0.0 0.0 0.00 0.00 0.00 69 1013.7
20140424054402 37 167 0.0 0.0 0.00 0.00 0.00 69 1013.7
20140424053402 38 167 0.0 0.0 0.00 0.00 0.00 69 1013.8
20140424052402 38 167 0.0 0.0 0.00 0.00 0.00 68 1014.0
20140424051402 38 167 0.0 0.0 0.00 0.00 0.00 68 1014.1
20140424050402 38 167 0.0 0.0 0.00 0.00 0.00 68 1014.1
20140424045402 39 167 0.0 0.0 0.00 0.00 0.00 66 1014.4
20140424044403 39 167 0.0 0.0 0.00 0.00 0.00 65 1014.4
20140424043402 39 167 0.0 0.0 0.00 0.00 0.00 65 1014.4
20140424042402 39 167 0.0 0.0 0.00 0.00 0.00 64 1014.4
20140424041402 39 167 0.0 0.0 0.00 0.00 0.00 64 1014.4
20140424040403 40 167 0.0 0.0 0.00 0.00 0.00 64 1014.3
20140424035402 40 167 0.0 0.0 0.00 0.00 0.00 63 1014.4
20140424034403 40 167 0.0 0.0 0.00 0.00 0.00 61 1014.3
20140424033403 41 167 0.0 0.0 0.00 0.00 0.00 60 1014.2
20140424032403 42 167 0.0 0.0 0.00 0.00 0.00 58 1014.1
20140424031403 42 167 0.0 0.0 0.00 0.00 0.00 58 1014.0
20140424030402 43 167 0.0 0.0 0.00 0.00 0.00 58 1013.8
20140424025403 44 167 0.0 0.0 0.00 0.00 0.00 57 1013.8
20140424024403 44 167 0.0 0.0 0.00 0.00 0.00 56 1013.8
20140424023403 44 167 0.0 0.0 0.00 0.00 0.00 56 1013.8
20140424022402 45 167 0.0 0.0 0.00 0.00 0.00 55 1013.7
20140424021402 45 167 0.0 0.0 0.00 0.00 0.00 53 1013.5
20140424020402 45 167 0.0 0.0 0.00 0.00 0.00 54 1013.6
20140424015403 46 167 1.0 3.0 0.00 0.00 0.00 53 1013.4
20140424014402 46 198 0.0 0.0 0.00 0.00 0.00 49 1013.2
20140424013403 47 198 0.0 0.0 0.00 0.00 0.00 48 1013.0
20140424012403 49 198 0.0 0.0 0.00 0.00 0.00 46 1012.6
20140424011403 50 198 0.0 0.0 0.00 0.00 0.00 43 1012.5
20140424010403 51 198 0.0 0.0 0.00 0.00 0.00 43 1012.4
20140424005403 53 198 0.0 0.0 0.00 0.00 0.00 41 1012.2
20140424004402 55 198 0.0 0.0 0.00 0.00 0.00 37 1011.9
20140424003403 57 198 0.0 0.0 0.00 0.00 0.00 38 1011.8
20140424002402 58 198 0.0 0.0 0.00 0.00 0.00 36 1011.6
20140424001403 60 198 0.0 0.0 0.00 0.00 0.00 34 1011.5
20140424000403 61 198 0.0 0.0 0.00 0.00 0.00 31 1011.1
20140423235403 62 229 0.0 2.0 0.00 0.00 0.00 31 1011.3
20140423234403 63 229 0.0 5.0 0.00 0.00 0.00 30 1011.3
20140423233403 64 229 1.0 5.0 0.00 0.00 0.00 29 1011.2
20140423232403 64 224 3.0 7.0 0.00 0.00 0.00 29 1011.2
20140423231403 65 254 5.0 10.0 0.00 0.00 0.00 28 1011.0
20140423230406 65 231 3.0 10.0 0.00 0.00 0.00 28 1011.0